Home   Weather   Minot   Past weeks

Flag for USA Past Weather in Minot, North Dakota, USA — Yesterday and Last 2 Weeks

Now
53 °F

Clear.


Feels Like: 50 °F
Forecast: 52 / 67 °F
Wind: 9 mph from Southeast

Location: Minot International Airport

Current Time: Sep 30, 2016 at 12:06:17 AM

Latest Report: Sep 29, 2016 at 10:54 PM


Visibility: 10 mi

Pressure: 30.24 "Hg

Humidity: 77%

Dew Point: 46 °F

Location of MinotLocation

Past Weather in Minot — Graph

°F

Minot Temperature Yesterday

Maximum temperature yesterday: 71 °F (at 2:54 PM)
Minimum temperature yesterday: 43 °F (at 2:54 AM)
Average temperature yesterday: 57 °F

High & Low Weather Summary for the Past Weeks

 TemperatureHumidityPressure
High82 °F (Sep 17, 4:54 PM)100% (Sep 15, 7:54 PM)30.37 "Hg (Sep 15, 7:54 PM)
Low40 °F (Sep 27, 7:54 AM)23% (Sep 18, 5:54 PM)29.53 "Hg (Sep 18, 5:54 AM)
Average58 °F67%29.99 "Hg
* Reported Sep 14 10:54 PM — Sep 29 10:54 PM, Minot, Weather by CustomWeather, © 2016

Note: Actual official high and low records may vary slightly from our data, if they occured in-between our weather recording intervals... More about our weather records

Advertising

Minot Weather History for the Previous 24 Hours

Scroll right to see more
 ConditionsComfort  
Time TempWeatherWind HumidityBarometerVisibility
10:54 PM
Thu, Sep 29
53 °FClear.9 mph77%30.24 "Hg10 mi
9:54 PM56 °FClear.10 mph72%30.25 "Hg10 mi
8:54 PM59 °FClear.12 mph62%30.24 "Hg10 mi
7:54 PM63 °FClear.14 mph56%30.24 "Hg10 mi
6:54 PM68 °FSunny.14 mph45%30.23 "Hg10 mi
5:54 PM71 °FSunny.12 mph39%30.24 "Hg10 mi
4:54 PM71 °FSunny.15 mph39%30.24 "Hg10 mi
3:54 PM71 °FSunny.18 mph39%30.26 "Hg10 mi
2:54 PM71 °FSunny.16 mph39%30.28 "Hg10 mi
1:54 PM70 °FSunny.14 mph41%30.30 "Hg10 mi
12:54 PM67 °FSunny.16 mph47%30.33 "Hg10 mi
11:54 AM65 °FSunny.16 mph52%30.34 "Hg10 mi
10:54 AM61 °FSunny.12 mph62%30.35 "Hg10 mi
9:54 AM54 °FSunny.10 mph77%30.36 "Hg10 mi
8:54 AM48 °FSunny.8 mph89%30.37 "Hg10 mi
7:54 AM46 °FSunny.9 mph89%30.37 "Hg10 mi
6:54 AM45 °FClear.9 mph93%30.37 "Hg10 mi
5:54 AM43 °FClear.7 mph97%30.36 "Hg10 mi
4:54 AM45 °FClear.8 mph93%30.35 "Hg10 mi
3:54 AM45 °FClear.7 mph93%30.35 "Hg10 mi
2:54 AM43 °FClear.8 mph97%30.36 "Hg10 mi
1:54 AM44 °FClear.7 mph96%30.36 "Hg10 mi
12:54 AM45 °FClear.6 mph97%30.36 "Hg10 mi
Weather by CustomWeather, © 2016

See weather overviewHow to use our weather pages